Weather in Zagustay

Russia / Republic of Buryatia     51°58′38″N   110°43′46″E
temp.,
°C
wind,
m/s
gust,
m/s
humid.,
%
clouds,
%
prec.,
mm/h
press.,
hPa
HPBL,
m
12 may, wed
wed1223:00+2w24721 0.0 101369
02:000sw22820 0.0 101320
05:00−1sw21900 0.0 101314
08:00+6wsw35644 0.0 1011481
11:00+11wnw574236 0.1 10082078
14:00+13w7937100 0.3 10062880
17:00+12wnw684350 0.1 10052109
20:00+7w38683 0.8 1008201
13 may, thu
thu1323:00+2wnw247541 0.0 101179
02:000w22871 0.0 101225
05:00−1wsw249314 0.0 101376
08:00+4wnw684151 0.0 10111330
11:00+7w6831100 0.0 10092490
14:00+9w6825100 0.0 10083215
17:00+8nw6830100 0.0 10082839
20:00+4nw493859 0.0 1010472
14 may, fri
fri1423:000wnw4106183 0.0 1012459
02:00−1w387261 0.0 1013246
05:00−1wsw127386 0.0 101441
08:00+4w245319 0.0 1015660
11:00+9w453952 0.0 10121805
14:00+13w462894 0.0 10102843
17:00+13nw56235 0.0 10092936
20:00+8nw36380 0.0 1012118
15 may, sat
sat1523:00+3wsw11510 0.0 101510
02:000sw11640 0.0 101610
05:00−1ssw11730 0.0 101711
08:00+7wsw25431 0.0 1015423
11:00+14w47265 0.0 10111257
14:00+17w682027 0.0 10092688
17:00+16w892846 0.0 10082528
20:00+11wnw61146100 0.0 1011830
16 may, sun
sun1623:00+7w6124086 0.0 1013676
02:00+5w6126276 0.0 1014767
05:00+5w61177100 0.0 10141356
08:00+7w71166100 0.1 10151524
11:00+8wsw51170100 0.1 10141235
14:00+14w7145299 0.1 10111955
17:00+17w7133865 0.0 10092446
20:00+13wnw36505 0.0 1009112